This is the latest recevied weather packets stored in our database for station/object W8KJR. If no packets are shown the sender has not sent any weather packets the latest 1 day(s).
| Time | Temp. | Humidity | Pressure | Rain* | Wind** | Luminosity | Snow |
|---|---|---|---|---|---|---|---|
| 1778028054 | 8.89° C | 99% | 1008 hPa | 1.78 mm | 0 m/s | - | - |
| 1778027154 | 8.89° C | 99% | 1007.9 hPa | 1.78 mm | 0 m/s | - | - |
| 1778026250 | 9.44° C | 99% | 1008 hPa | 4.32 mm | 0 m/s | - | - |
| 1778025348 | 9.44° C | 99% | 1007.8 hPa | 1.78 mm | 0 m/s | - | - |
| 1778024444 | 9.44° C | 99% | 1007.9 hPa | 3.05 mm | 0 m/s | - | - |
| 1778023543 | 8.89° C | 99% | 1008.1 hPa | 3.05 mm | 0 m/s | - | - |
| 1778022642 | 9.44° C | 99% | 1008.2 hPa | 4.83 mm | 0 m/s | - | - |
| 1778021737 | 9.44° C | 99% | 1007.8 hPa | 0 mm | 0 m/s | - | - |
| 1778020833 | 9.44° C | 99% | 1007.2 hPa | 3.05 mm | 0 m/s | - | - |
| 1778019929 | 10° C | 99% | 1007.4 hPa | 3.56 mm | 0 m/s | - | - |
| 1778019025 | 10° C | 99% | 1007.5 hPa | 4.32 mm | 0.45 m/s, 331° | - | - |
| 1778017221 | 10° C | 99% | 1007.3 hPa | 0 mm | 0 m/s | - | - |
| 1778016317 | 10° C | 99% | 1007.5 hPa | 3.05 mm | 0 m/s | - | - |
| 1778015413 | 10° C | 98% | 1007.3 hPa | 3.05 mm | 0 m/s | - | - |
| 1778014511 | 10.56° C | 98% | 1007.2 hPa | 4.32 mm | 0 m/s | - | - |
| 1778013609 | 10° C | 98% | 1007.2 hPa | 4.32 mm | 0 m/s | - | - |
| 1778012704 | 10.56° C | 98% | 1007.2 hPa | 3.05 mm | 0 m/s | - | - |
| 1778011801 | 11.11° C | 98% | 1006.9 hPa | 1.27 mm | 0 m/s | - | - |
| 1778010897 | 11.67° C | 98% | 1007 hPa | 1.27 mm | 0 m/s | - | - |
| 1778010001 | 11.67° C | 98% | 1007.4 hPa | 3.05 mm | 0 m/s | - | - |
| 1778009097 | 11.67° C | 97% | 1007.6 hPa | 3.05 mm | 0 m/s | - | - |
| 1778008196 | 11.67° C | 96% | 1008 hPa | 1.78 mm | 0 m/s | - | - |
| 1778007295 | 11.67° C | 96% | 1007.8 hPa | 1.78 mm | 0 m/s | - | - |
| 1778006390 | 11.67° C | 96% | 1007.6 hPa | 1.78 mm | 0 m/s | - | - |
| 1778005488 | 11.67° C | 95% | 1007.4 hPa | 1.27 mm | 0 m/s | - | - |
* Rain latest hour (hover to see other rain measurements)
** Current wind speed in m/s (hover to see current wind gust speed)